Preview of NWS' New Version of Forecast
This preview is not operational and should not be used for support decisions.

Regional Weather Roundup (RWR)

Issued by National Weather Service (NWS)

                            
000
ASUS43 KMKX 212020
RWRWI 

WISCONSIN REGIONAL WEATHER ROUNDUP
NATIONAL WEATHER SERVICE MILWAUKEE/SULLIVAN WI
200 PM CST THU FEB 21 2019

NOTE: "FAIR" INDICATES FEW OR NO CLOUDS BELOW 12,000 FEET WITH NO
SIGNIFICANT WEATHER AND/OR OBSTRUCTIONS TO VISIBILITY.

WIZ001-002-006>008-014>016-023>028-212100-
NORTHWEST WISCONSIN
  
CITY           SKY/WX    TMP DP  RH WIND       PRES   REMARKS
SUPERIOR ARPT  CLOUDY    30  18  61 W5        30.11R WCI  25          
ASHLAND        CLOUDY    27  19  72 SW8       30.10R WCI  19          
HAYWARD        CLOUDY    22  17  81 VRB5      30.11R HAZE    WCI  16  
SIREN          CLOUDY    23  17  77 SW9       30.15R WCI  13          
CUMBERLAND     CLOUDY    23  14  68 SW6       30.13R WCI  16          
RICE LAKE      CLOUDY    23  12  63 W7        30.15R WCI  15          
CHETEK         CLOUDY    23  14  68 SW8       30.16R WCI  14          
LADYSMITH      CLOUDY    24  16  69 W6        30.14R WCI  17          
EAU CLAIRE     FAIR      20  12  71 W9        30.17R WCI   9          
MENOMONIE      FAIR      19   9  65 SW6       30.18R WCI  11          
NEW RICHMOND   FAIR      22  12  63 SW7       30.17R WCI  14          
OSCEOLA        FAIR      23  16  73 W5        30.20S WCI  17          
$$
 
WIZ003>005-009-010-017-018-212100-
NORTH CENTRAL WISCONSIN
  
CITY           SKY/WX    TMP DP  RH WIND       PRES   REMARKS
MANITOWISH WTR NOT AVBL                                               
ARBOR VITAE    LGT SNOW  23  18  80 SW8       30.06R WCI  14          
WOODRUFF       LGT SNOW  23  18  80 SW8       30.06R WCI  14          
RHINELANDER    CLOUDY    24  15  68 W12       30.05R WCI  13          
EAGLE RIVER    FLURRIES  23  16  75 W7        30.04R WCI  15          
LAND O LAKES   CLOUDY    25  19  77 W6        30.05R WCI  18          
PHILLIPS       CLOUDY    22  15  75 NW7       30.08R WCI  13          
TOMAHAWK       CLOUDY    23  14  69 NW9       30.08R WCI  13          
MEDFORD        CLOUDY    20  13  74 NW10      30.10R WCI   8          
MERRILL        CLOUDY    25  15  65 NW5       30.09S WCI  19          
$$
 
WIZ029-030-035-036-043>047-212100-
CENTRAL WISCONSIN
  
CITY           SKY/WX    TMP DP  RH WIND       PRES   REMARKS
WAUSAU         FAIR      22  12  65 W9        30.09R WCI  12          
MOSINEE        MOSUNNY   21  12  68 W10       30.12R WCI  10          
MARSHFIELD     FAIR      21  12  68 W6        30.11R WCI  13          
STEVENS POINT  FAIR      21  11  64 W9        30.13S WCI  11          
WAUPACA        FAIR      30  14  51 W12G17    30.14R WCI  20          
WAUTOMA        FAIR      32  16  51 W10       30.14S WCI  24          
WISC RAPIDS    FAIR      25  11  55 NW13      30.14R WCI  14          
CAMP DOUGLAS   SUNNY     25  12  58 W13       30.16R WCI  13          
$$
 
WIZ011>013-019>022-031-037>040-048>050-212100-
NORTHEAST WISCONSIN
  
CITY           SKY/WX    TMP DP  RH WIND       PRES   REMARKS
ANTIGO         FAIR      25  14  62 NW8       30.06R WCI  16          
SHAWANO        FAIR      35  15  44 W8G17     30.09R WCI  28          
OCONTO         FAIR      30  15  54 W12       30.09R WCI  20          
STURGEON BAY   FAIR      29  17  61 SW13      30.06F WCI  19          
GREEN BAY      FAIR      30  15  53 SW12      30.11R WCI  20          
MANITOWOC      FAIR      29  16  58 W14       30.13R WCI  18          
APPLETON       SUNNY     27  10  50 W10       30.11R WCI  17          
CLINTONVILLE   FAIR      29  12  50 W12       30.11R WCI  19          
OSHKOSH        FAIR      26  14  60 SW8       30.13R WCI  18          
$$
 
WIZ032>034-041-042-053>061-212100-
SOUTHWEST WISCONSIN
  
CITY           SKY/WX    TMP DP  RH WIND       PRES   REMARKS
LA CROSSE      FAIR      26  14  60 NW10      30.20R WCI  16          
SPARTA         FAIR      26  14  60 W13       30.19R WCI  14          
VIROQUA        FAIR      25  14  63 NW10      30.14F WCI  15          
BOSCOBEL       FAIR      28  12  51 W9        30.20S WCI  19          
PRAIRIE DU CHI FAIR      24  11  57 W10       30.21S WCI  13          
PLATTEVILLE    FAIR      26  15  64 W17       30.19R WCI  13          
$$

WIZ056-057-062-063-064-067-068-212100-
SOUTH CENTRAL WISCONSIN
  
CITY           SKY/WX    TMP DP  RH WIND       PRES   REMARKS
REEDSBURG      FAIR      26  12  55 W8        30.15S WCI  18          
BARABOO/DELLS  FAIR      27  12  52 W7        30.15R WCI  19          
LONE ROCK      FAIR      28  13  53 W8        30.18S WCI  20          
MINERAL POINT  FAIR      27  16  63 W10       30.17R WCI  17          
MADISON        FAIR      26  13  57 SW9       30.16S WCI  17          
MIDDLETON      FAIR      31  14  50 W6        30.17R WCI  25          
WATERTOWN      FAIR      27  14  57 SW9       30.16R WCI  18          
MONROE         FAIR      27  14  59 MISG      30.18R                  
JANESVILLE     MOSUNNY   28  16  59 W13       30.19R WCI  18          
$$
 
WIZ051-052-058>065-066-070>072-212100-
SOUTHEAST WISCONSIN
  
CITY           SKY/WX    TMP DP  RH WIND       PRES   REMARKS
MILWAUKEE      FAIR      32  15  49 W6        30.16R WCI  26          
WAUKESHA       SUNNY     27  12  54 W13       30.15F WCI  16          
MILWAUKEE/TIMM SUNNY     28  10  47 W14G20    30.16S WCI  17          
RACINE         FAIR      30  15  53 W10G20    30.18R WCI  21          
KENOSHA        FAIR      31  19  61 W10       30.18R WCI  22          
FOND DU LAC    FAIR      25  13  60 W10       30.14S WCI  15          
SHEBOYGAN      FAIR      25  15  66 W14       30.13S WCI  13          
WEST BEND      FAIR      28  14  54 W9        30.14R WCI  20          
JUNEAU         FAIR      24  13  64 SW13      30.16R WCI  12          
$$

LSZ147-162-212100-
LAKE SUPERIOR
  
STATION/POSITION TIME  TEMP    WIND        PRES    WAVE
                       AIR SEA DIR/SP/G            HT/PER
                 (UTC) (F)     (DEG/KT/KT) (MB)    (FT/S)
DEVILS ISLAND    2000   25     240/ 12/ 14 1019.7R
SAXON HARBOR     1940   29     220/  6/ 10 1018.6R
$$
 
LMZ867-665-643>646-212100-
LAKE MICHIGAN
  
STATION/POSITION TIME  TEMP    WIND        PRES    WAVE
                       AIR SEA DIR/SP/G            HT/PER
                 (UTC) (F)     (DEG/KT/KT) (MB)    (FT/S)
NORTHPORT PIER   1940   30     240/  2/  5 1017.9R
KEWAUNEE LAKESHO 1954   27     250/  8/ 13 1018.7R
SHEBOYGAN LAKESH 2000   27     260/ 14/ 17 1021.1R
PORT WASHINGTON  1940   29     290/  6/ 14 1022.0S
MILWAUKEE LAKESH 2000   29     240/  4/  7   N/A
KENOSHA   LAKESH 2000   31     270/ 11/ 14 1022.0
$$

TC  - TEMPERATURE IN CELSIUS
VSB - VISIBILITY IN STATUTE MILES
WCI - WIND CHILL INDEX
HX  - HEAT INDEX